Lapse_Rate
7.6 7.8 7.5 7.4 7.4 7.3 7.2 7.2 7.0 6.9 6.5 6.4 6.3 6.2 6.1 6.2 6.2 6.3 6.1 6.1 6.0 6.3 6.1 6.2 6.0 6.0 5.8 5.8 6.2 6.2 6.1 6.0
7.7 7.8 7.6 7.4 7.5 7.3 7.2 7.1 7.0 6.9 6.6 6.4 6.3 6.3 6.3 6.1 6.1 6.2 6.4 6.4 6.4 6.3 6.3 6.3 6.3 6.1 5.6 5.4 5.9 5.8 5.7 5.6
7.6 7.7 7.5 7.4 7.4 7.3 7.3 7.1 7.0 6.9 6.7 6.5 6.5 6.5 6.3 6.3 6.0 6.2 6.4 6.6 6.6 6.4 6.0 6.0 6.0 6.1 5.6 5.5 5.5 5.7 5.3 5.6
7.4 7.6 7.5 7.4 7.3 7.3 7.2 7.1 7.0 6.9 6.9 6.7 6.6 6.6 6.4 6.3 6.1 6.3 6.5 6.7 6.7 6.3 6.2 5.9 5.7 5.9 5.4 5.6 5.2 5.2 5.2 5.5
7.5 7.4 7.5 7.4 7.2 7.1 7.2 7.1 6.9 6.9 6.9 6.9 6.8 6.7 6.5 6.6 6.3 6.3 6.5 6.6 6.6 6.6 6.3 5.9 5.7 5.5 5.4 5.1 5.2 5.0 5.2 5.3
7.5 7.4 7.4 7.5 7.3 7.1 7.2 7.2 7.0 7.0 7.0 6.8 6.9 6.8 6.7 6.8 6.6 6.4 6.4 6.5 6.5 6.5 6.3 5.9 5.7 5.6 5.4 5.4 5.3 5.4 5.3 5.1
7.6 7.4 7.3 7.5 7.4 7.3 7.3 7.2 7.1 7.0 7.0 7.0 6.8 6.8 6.8 6.7 6.8 6.7 6.7 6.8 6.6 6.5 6.3 6.0 5.7 5.5 5.3 5.3 5.4 5.5 5.2 5.3
7.7 7.6 7.2 7.3 7.4 7.4 7.4 7.3 7.2 7.0 7.0 7.0 6.9 6.7 6.8 6.8 6.8 6.9 6.7 6.8 6.6 6.5 6.2 6.1 5.9 5.7 5.4 5.3 5.2 5.5 5.3 5.3
7.7 7.4 7.1 7.1 7.4 7.4 7.4 7.3 7.3 7.1 7.0 7.0 7.0 6.8 6.8 6.9 6.8 6.9 6.7 6.7 6.6 6.4 6.3 6.2 6.0 5.7 5.8 5.5 5.5 5.5 5.3 5.2
7.0 7.1 7.0 6.9 7.1 7.2 7.3 7.3 7.4 7.3 7.3 7.2 7.1 7.0 6.9 6.8 6.9 6.8 6.8 6.7 6.8 6.6 6.2 6.1 6.1 5.8 5.5 5.3 5.4 5.6 5.4 5.3
7.0 6.9 7.0 7.0 7.0 7.0 7.0 7.2 7.3 7.3 7.4 7.3 7.2 7.0 6.9 6.9 6.8 6.7 6.6 6.7 6.8 6.7 6.4 6.2 6.0 6.0 5.7 5.5 5.3 5.6 5.6 5.4
7.3 6.8 7.0 7.1 6.9 6.8 6.8 6.9 7.1 7.4 7.3 7.2 7.2 7.1 7.0 6.9 6.8 6.7 6.5 6.6 6.6 6.6 6.6 6.3 6.2 5.7 5.7 5.5 5.3 5.4 5.3 5.0
7.3 7.1 6.8 7.1 7.1 7.1 7.1 7.0 7.1 7.2 7.2 7.2 7.2 7.2 7.2 7.0 6.9 6.7 6.6 6.6 6.5 6.4 6.2 6.1 6.2 6.0 5.5 5.5 5.5 5.4 5.4 5.0
7.5 7.2 7.0 6.9 7.0 7.2 7.2 7.2 7.0 7.0 7.0 7.2 7.2 7.3 7.2 7.1 7.0 6.8 6.5 6.6 6.4 6.5 6.3 6.1 6.0 6.0 5.8 5.7 5.6 5.2 5.1 5.0
7.4 7.2 7.2 6.8 6.7 6.8 7.0 6.9 6.8 7.1 7.2 7.4 7.3 7.4 7.3 7.2 7.0 6.9 6.7 6.7 6.5 6.5 6.4 6.2 6.1 5.9 5.8 5.6 5.4 5.2 5.2 4.9
7.1 7.3 7.1 6.8 6.4 6.6 7.0 6.9 7.0 6.9 6.9 7.0 7.2 7.2 7.3 7.3 7.3 7.1 6.8 6.7 6.5 6.4 6.3 6.1 6.0 6.1 5.9 5.8 5.3 5.6 5.5 5.4
7.2 7.3 6.9 6.9 6.7 6.5 6.5 6.6 6.6 6.7 6.5 6.7 7.0 7.2 7.4 7.4 7.4 7.1 6.9 6.8 6.4 6.3 6.2 5.9 5.8 5.9 6.0 5.4 5.4 5.3 5.5 5.5
7.2 7.1 7.2 7.0 7.0 7.0 7.1 6.4 6.5 6.6 6.6 6.6 7.0 7.1 7.4 7.5 7.4 7.2 6.9 6.8 6.4 6.1 6.0 5.8 5.7 5.8 5.6 5.6 5.3 5.3 5.8 5.7
7.0 6.8 6.8 7.0 7.1 7.0 7.0 6.9 6.5 6.6 6.8 6.8 7.0 7.2 7.5 7.6 7.3 7.2 6.9 6.8 6.4 6.0 6.0 5.6 5.5 5.5 5.4 5.2 5.2 5.4 5.5 5.7
7.2 7.4 7.0 6.3 6.0 6.3 6.7 6.9 6.7 6.5 6.7 6.8 7.1 7.2 7.5 7.4 7.4 7.3 6.9 6.8 6.4 5.9 5.8 5.3 5.6 5.5 5.2 5.7 5.2 5.4 5.2 5.5
Wind_Speed
9 12 13 15 19 19 19 19 19 18 18 17 18 19 23 25 25 24 20 19 18 19 18 16 12 15 21 16 17 21 16 11
9 8 11 10 12 18 18 18 19 19 19 19 20 21 23 25 25 21 19 19 17 16 13 12 11 13 16 22 14 16 18 12
8 8 6 9 10 13 17 17 17 18 18 20 21 14 18 22 20 22 23 20 18 15 13 13 15 18 18 17 17 12 15 11
7 8 8 6 8 10 11 12 12 12 13 14 13 14 15 17 20 24 21 19 19 16 14 14 12 10 9 16 11 16 14 13
11 9 8 8 6 6 6 8 9 10 13 13 12 11 12 12 13 15 14 16 13 13 13 12 10 9 9 8 11 15 15 14
14 13 10 8 5 5 5 6 6 4 10 14 11 5 6 7 8 14 12 11 9 10 8 9 9 9 9 8 8 11 12 14
15 14 13 11 9 6 6 6 6 8 10 13 14 7 7 7 7 11 12 13 11 7 7 6 6 7 7 7 7 10 13 14
15 16 14 14 12 10 7 6 7 8 10 13 15 13 7 7 8 8 9 14 13 12 7 5 4 5 4 8 6 11 11 14
16 16 14 13 14 10 8 7 7 7 7 14 15 15 12 8 8 7 8 14 13 10 7 6 4 4 5 4 6 8 9 13
15 14 16 15 13 11 8 8 8 6 8 13 14 15 16 9 8 8 11 11 10 7 7 7 6 6 5 4 3 9 11 12
16 15 16 18 13 11 9 10 9 6 8 8 13 13 16 9 8 7 13 7 7 7 7 8 7 7 7 5 5 5 6 11
19 17 18 15 8 6 5 6 6 6 7 6 12 12 14 9 7 8 9 7 7 8 10 7 6 8 6 5 4 4 5 6
18 16 15 12 10 10 8 10 8 7 7 9 11 12 12 10 7 8 7 8 10 11 7 10 6 6 5 3 2 3 4 6
18 18 17 17 13 11 6 9 6 7 7 9 12 12 13 10 9 8 8 6 8 12 11 5 5 9 6 5 4 2 3 5
3 3 11 17 17 8 4 5 4 4 7 8 8 10 11 11 11 9 9 8 8 10 11 13 8 8 7 4 3 3 5 3
13 3 6 2 4 9 14 12 11 11 10 7 8 11 10 10 10 10 10 8 9 10 10 11 10 10 6 7 2 4 8 4
10 11 10 7 6 7 9 11 8 3 4 9 9 8 10 11 11 10 9 8 9 10 11 13 11 10 11 8 2 3 2 8
10 13 10 9 8 10 14 14 10 8 9 9 8 8 6 10 12 11 10 9 8 9 11 14 12 11 12 9 7 9 9 9
10 9 11 12 10 10 13 14 14 15 13 10 10 8 7 9 11 9 8 8 9 10 10 11 13 14 16 11 7 7 9 4
17 14 11 9 13 12 11 14 10 9 11 9 9 9 9 10 10 8 7 7 7 9 9 9 11 8 15 10 6 7 8 5
Wind_Direction
142 150 155 163 153 153 155 156 163 168 170 169 167 168 147 144 147 148 154 157 156 154 140 151 144 152 155 142 144 140 131 136
143 143 150 162 161 155 154 154 157 161 169 173 170 169 155 153 156 163 153 159 167 171 169 152 139 141 149 145 143 137 133 140
148 152 157 161 162 160 154 158 161 160 163 171 168 163 157 158 159 157 164 166 175 182 181 171 157 147 158 141 143 147 139 145
164 165 167 165 168 160 155 156 160 159 159 159 156 156 157 165 162 164 168 173 182 180 178 176 179 162 149 136 148 154 146 155
172 170 175 170 171 163 162 157 160 160 159 153 148 145 147 148 160 162 162 166 169 163 167 171 180 175 151 143 158 161 156 158
171 168 174 180 160 178 171 166 167 161 163 155 144 147 150 150 157 165 160 162 157 157 169 170 182 193 178 160 157 155 165 161
179 173 171 176 174 182 176 179 172 171 160 163 152 154 162 158 157 163 164 164 167 165 167 167 181 187 191 171 165 162 167 158
178 183 180 171 180 180 182 175 174 170 167 170 161 160 162 167 165 167 169 177 174 175 180 175 179 180 182 179 169 181 172 156
183 183 179 176 180 179 177 178 174 174 171 169 166 162 169 165 172 175 179 180 172 165 158 160 156 185 202 179 171 163 156 162
189 188 182 181 179 182 179 179 175 175 168 170 168 166 172 172 176 182 176 171 174 172 176 185 189 194 196 176 169 163 155 165
184 186 186 186 184 179 174 172 172 171 166 160 172 172 173 175 182 185 176 174 178 177 186 191 190 200 197 164 162 161 159 161
190 184 186 185 168 151 152 166 169 168 173 171 171 179 177 176 176 182 175 173 185 194 195 189 193 204 190 162 159 143 160 166
192 180 179 168 164 163 173 190 178 175 178 178 180 185 182 180 179 174 177 183 188 187 183 187 189 172 155 133 102 128 143 172
182 185 176 178 181 181 181 180 194 177 172 182 187 188 191 190 184 184 180 173 181 189 183 179 189 177 180 156 165 166 181 182
83 175 189 181 184 155 113 106 88 149 180 181 187 185 187 191 189 189 188 188 195 193 188 186 186 186 189 154 152 186 150 159
26 93 142 156 223 176 168 177 180 199 189 164 174 186 189 190 186 185 188 197 203 203 198 197 187 194 183 202 178 155 166 147
23 24 31 19 185 209 191 192 198 153 164 171 171 183 189 188 183 185 189 196 203 207 208 205 197 189 192 187 185 188 119 149
17 14 0 356 349 212 207 198 187 171 179 185 187 206 194 194 186 188 192 198 193 213 213 211 201 199 191 182 180 177 172 162
30 21 349 334 327 304 219 214 200 190 185 183 177 188 195 187 179 180 185 197 203 210 214 219 214 200 188 180 185 189 177 140
359 358 354 321 304 278 246 214 209 202 189 181 186 187 179 171 175 170 177 195 207 216 221 225 222 194 175 167 167 177 165 144